Wind_Speed
12 11 13 11 9 7 7 6 5 6 6 8 10 11 12 12 12 11 11 12 13 13 12 12 11 11 11 11 12 12 14 15 15 16 14 11 13 13 15 16 10 12 11
15 13 13 11 9 8 7 6 5 7 7 9 9 10 11 11 11 10 10 10 10 10 10 8 8 8 8 9 9 10 12 13 15 13 16 13 11 12 11 9 10 11 10
17 14 14 11 10 8 8 7 6 6 7 8 9 9 9 9 8 7 8 9 9 8 8 7 7 6 6 5 6 7 10 12 12 12 14 12 11 11 11 10 9 9 8
15 14 12 12 9 9 8 7 7 6 6 8 8 8 8 7 7 7 7 7 6 6 6 6 6 5 5 5 5 6 8 10 10 10 9 9 10 10 9 9 7 8 8
16 15 12 11 9 8 9 8 7 7 6 6 6 6 6 6 6 5 6 7 7 7 6 5 5 5 6 7 6 7 10 11 12 12 12 12 10 9 7 7 6 4 3
15 14 13 11 10 9 8 7 6 6 6 6 6 5 4 4 5 7 8 6 7 6 6 6 6 6 7 7 7 9 12 16 10 12 12 12 12 10 6 4 4 4 3
15 14 14 11 10 8 7 6 5 5 5 5 5 5 4 4 6 6 6 6 6 6 7 7 7 7 7 8 8 9 14 14 14 11 13 12 12 12 10 7 6 4 5
16 16 14 12 11 10 8 6 6 5 4 4 4 4 5 7 6 5 5 5 5 7 7 8 8 8 8 9 10 12 17 17 12 17 12 14 12 11 9 8 6 6 4
16 15 11 12 11 10 8 7 6 5 5 4 4 6 6 6 5 5 5 6 7 7 7 7 8 8 9 10 12 14 17 15 13 13 14 12 9 10 8 7 8 8 3
18 17 14 12 11 11 10 9 7 5 3 3 4 5 5 4 4 5 6 7 7 6 6 7 8 8 8 9 12 21 22 15 20 15 16 14 11 10 7 3 5 4 3
18 17 15 15 12 12 11 10 7 4 2 2 5 7 8 6 5 4 7 6 5 5 6 7 9 9 9 14 16 21 17 8 12 15 14 12 12 9 7 5 5 4 5
21 19 16 13 12 12 11 8 5 4 3 5 6 6 6 6 5 4 5 4 4 5 7 9 13 17 14 9 11 14 13 12 12 12 15 12 13 13 15 12 10 6 7
19 18 20 20 17 14 11 9 6 6 5 6 6 6 6 5 4 3 3 4 4 7 7 8 11 9 8 8 10 12 12 11 12 12 11 9 13 14 15 18 17 13 13
20 18 19 18 18 16 11 9 8 7 7 5 6 5 4 4 6 5 4 4 5 5 7 6 6 9 11 12 12 13 12 11 10 11 10 9 12 14 17 17 17 18 18
20 18 17 18 19 15 12 10 9 9 7 8 6 8 7 5 6 6 7 5 5 6 6 7 9 9 10 11 11 12 12 13 11 9 11 5 3 2 4 9 11 15 16
20 21 20 18 19 15 12 12 10 10 12 8 7 9 8 7 7 7 7 6 6 6 6 7 8 9 9 10 11 11 11 12 12 9 6 8 4 4 5 7 9 10 12
21 20 20 20 18 15 14 12 10 10 9 8 9 10 9 7 8 8 8 7 7 9 10 9 9 8 9 9 9 10 10 11 10 9 8 8 12 10 7 8 9 9 9
21 23 21 21 20 16 14 13 11 12 10 9 9 9 9 9 9 8 7 8 8 8 7 8 8 8 9 8 9 7 7 8 8 7 6 5 5 10 10 11 11 9 8
22 24 21 22 20 17 16 14 13 14 12 9 9 9 10 9 10 8 7 9 9 8 8 9 9 9 9 9 9 8 7 6 6 4 5 4 2 3 6 12 16 11 11
24 22 21 21 18 18 16 15 14 14 12 11 10 10 10 10 10 11 9 9 9 9 10 10 10 9 9 9 8 8 6 5 4 3 3 2 3 4 4 4 9 17 19
25 26 22 21 20 19 17 17 17 17 14 12 11 13 12 12 12 11 10 10 9 8 10 11 11 13 11 11 9 6 4 4 4 2 2 1 2 2 3 4 3 3 14
29 30 26 22 22 22 19 18 17 16 16 15 14 14 14 13 13 12 12 11 10 10 11 13 13 12 11 12 6 5 4 3 3 3 2 1 2 1 3 4 4 5 4
31 30 27 24 24 24 21 21 19 17 17 17 18 17 16 15 14 13 12 11 11 10 11 11 12 12 11 11 10 6 4 4 6 4 3 3 3 1 1 4 4 4 5
32 31 30 29 30 30 28 26 26 24 22 19 19 18 18 17 16 14 13 12 12 11 11 12 13 12 9 9 9 9 10 4 4 4 6 6 5 4 5 3 3 4 5
33 34 36 35 34 31 30 28 29 25 21 19 18 20 20 19 17 16 15 14 13 12 12 12 13 12 10 9 9 7 7 7 10 7 6 8 4 6 5 4 5 2 4
42 37 36 34 33 31 33 35 31 31 25 23 23 23 23 22 20 19 16 14 13 13 12 12 12 12 12 12 9 10 8 7 6 7 7 6 5 8 7 7 5 5 4
Wind_Direction
147 165 152 146 141 132 125 121 114 104 101 97 96 99 96 95 93 88 85 85 89 92 92 93 89 80 72 66 64 67 67 68 68 67 58 65 80 81 81 83 80 72 73
153 158 153 145 147 140 135 127 119 115 107 103 106 104 103 99 94 91 86 85 86 88 88 84 78 73 70 68 69 67 63 63 63 60 57 54 76 78 81 86 66 75 76
156 165 154 152 150 144 136 130 129 120 118 117 114 110 106 102 98 92 80 74 73 74 74 75 74 72 68 65 68 69 69 70 75 61 62 72 60 71 71 71 70 73 67
148 150 153 154 153 143 134 130 133 136 130 127 124 121 116 107 93 84 84 82 75 72 72 68 68 71 74 71 74 71 73 75 62 61 73 69 64 65 61 59 59 60 56
147 151 166 154 150 140 138 143 149 139 131 128 120 118 112 107 101 90 78 83 88 81 78 72 66 65 69 76 77 78 77 75 56 55 60 61 54 52 52 49 52 77 52
147 153 165 154 151 156 156 156 148 134 138 135 127 124 118 109 111 112 101 86 81 76 70 69 69 70 71 80 84 86 81 64 73 50 57 54 49 43 40 45 40 30 12
157 164 159 160 163 159 156 157 143 141 144 130 127 133 126 118 120 113 100 86 74 69 65 67 73 74 73 74 77 83 95 80 45 57 59 60 52 52 54 55 48 41 29
152 154 160 168 174 162 163 158 151 140 140 128 125 123 127 124 113 95 95 84 72 64 65 70 79 81 83 84 84 88 95 87 85 65 58 70 63 60 64 79 91 108 113
154 150 161 184 170 165 164 154 145 142 131 119 111 116 124 128 113 101 88 84 80 82 78 76 83 88 90 89 85 81 90 71 75 69 70 66 58 64 76 85 93 88 100
156 165 174 171 155 168 163 153 149 145 135 118 131 137 129 119 108 98 100 92 85 81 82 85 86 88 89 86 85 87 82 81 78 69 73 72 61 48 40 48 72 73 41
176 176 180 146 153 160 162 155 158 151 155 152 146 135 103 100 90 102 101 96 91 86 86 90 84 73 83 83 97 96 87 74 73 79 75 72 63 47 22 12 12 336 311
189 184 170 153 166 154 154 148 165 140 127 156 158 147 131 137 148 104 102 103 111 104 101 96 85 78 71 70 70 82 94 67 80 81 79 70 63 44 36 19 25 348 311
180 179 180 164 176 158 173 169 170 171 172 191 179 159 155 145 126 107 78 68 97 88 106 86 65 88 117 102 96 91 92 91 88 82 85 81 75 65 50 43 37 32 24
182 183 183 176 174 160 180 170 182 178 179 161 195 180 156 148 162 136 149 153 127 144 149 125 126 115 107 104 101 100 99 95 92 85 104 101 100 80 63 51 40 32 12
182 178 183 181 185 184 170 188 171 184 165 188 182 189 174 174 184 168 165 150 148 140 142 140 119 117 111 104 101 100 103 102 96 91 105 104 82 27 349 344 9 31 36
182 181 185 190 191 190 180 188 191 165 197 163 181 201 200 196 196 183 163 139 138 139 147 142 137 125 127 115 110 107 103 100 102 91 65 32 2 354 351 349 349 357 36
188 188 196 197 194 188 191 194 174 186 167 172 192 199 196 196 185 168 156 147 152 168 147 155 141 143 128 122 115 109 104 104 104 105 104 28 357 2 357 1 2 359 3
192 197 196 204 201 190 187 183 175 180 173 180 193 206 197 190 173 154 154 155 164 138 147 153 152 147 142 134 126 121 118 112 107 96 102 110 83 359 351 9 360 2 2
199 199 192 205 200 191 189 181 180 184 175 181 184 200 201 191 171 157 165 173 155 156 157 157 166 161 157 146 141 137 129 119 111 113 85 59 98 96 359 356 6 2 359
196 206 197 199 198 190 193 183 182 187 181 183 184 198 197 192 181 164 178 168 158 159 161 163 168 163 162 155 150 147 144 138 136 118 89 85 41 48 56 52 15 332 346
194 202 195 196 196 190 193 188 189 187 186 183 186 206 198 192 184 173 174 173 163 161 168 167 162 165 168 163 154 156 169 175 147 154 137 110 63 36 32 39 42 49 343
199 201 197 199 198 194 195 193 195 189 191 190 198 201 198 194 185 179 180 177 167 175 171 168 165 170 179 175 174 178 194 228 215 172 186 189 179 48 4 6 9 12 30
206 204 202 201 206 200 196 192 190 188 192 191 202 202 199 192 189 190 185 182 176 170 172 176 175 179 187 201 181 228 245 263 169 236 250 214 247 215 250 343 343 350 357
210 207 208 209 208 211 197 199 192 193 193 200 201 200 200 194 194 193 190 189 184 177 188 189 189 191 195 211 223 230 229 224 236 207 220 249 238 230 229 223 286 328 341
213 212 215 216 216 215 202 198 199 195 197 198 194 200 201 200 196 196 194 193 193 192 199 196 203 194 209 206 229 242 241 243 236 247 251 212 217 226 235 237 217 259 317
225 218 215 213 210 209 207 200 206 200 193 194 195 201 203 204 201 200 199 196 198 205 206 207 212 215 213 219 215 230 226 226 241 230 251 235 250 226 234 233 252 233 263
Height
1559 1557 1559 1561 1562 1563 1564 1564 1564 1563 1563 1563 1563 1563 1563 1563 1563 1563 1563 1563 1563 1563 1563 1563 1563 1563 1563 1562 1562 1563 1562 1562 1563 1563 1563 1563 1562 1561 1561 1562 1564 1562 1561
1558 1558 1560 1562 1563 1564 1565 1565 1566 1565 1565 1566 1566 1565 1565 1565 1565 1565 1565 1565 1565 1565 1565 1565 1565 1565 1565 1565 1566 1566 1565 1565 1565 1565 1565 1566 1565 1564 1564 1564 1564 1564 1563
1558 1559 1561 1562 1564 1565 1565 1567 1567 1568 1567 1567 1568 1567 1567 1567 1567 1566 1567 1567 1567 1567 1567 1567 1566 1566 1566 1566 1567 1567 1568 1568 1568 1568 1568 1569 1567 1566 1566 1566 1566 1565 1565
1559 1561 1561 1563 1564 1565 1566 1568 1568 1568 1568 1569 1569 1569 1569 1569 1569 1569 1569 1569 1569 1569 1568 1568 1568 1567 1567 1568 1569 1569 1570 1570 1570 1570 1570 1569 1569 1568 1567 1567 1567 1567 1567
1560 1561 1562 1564 1565 1567 1567 1568 1569 1569 1570 1571 1571 1571 1571 1571 1571 1570 1571 1571 1570 1570 1570 1570 1569 1569 1569 1569 1570 1571 1572 1572 1572 1572 1571 1570 1570 1569 1569 1569 1569 1569 1569
1561 1563 1563 1565 1567 1568 1569 1569 1570 1570 1570 1571 1572 1572 1572 1572 1572 1571 1571 1572 1572 1572 1571 1571 1571 1571 1572 1572 1572 1573 1574 1574 1574 1573 1572 1572 1572 1572 1571 1571 1571 1570 1570
1561 1563 1564 1567 1568 1569 1570 1571 1572 1571 1571 1572 1572 1573 1573 1573 1573 1573 1572 1572 1572 1573 1573 1573 1573 1573 1573 1573 1574 1575 1576 1576 1577 1575 1574 1574 1574 1573 1572 1572 1571 1570 1570
1561 1563 1565 1568 1568 1569 1570 1571 1572 1572 1573 1573 1573 1574 1574 1574 1575 1574 1574 1573 1573 1574 1574 1574 1575 1575 1575 1575 1576 1577 1578 1580 1577 1577 1578 1576 1575 1574 1573 1572 1571 1570 1570
1562 1564 1566 1567 1569 1570 1571 1572 1573 1574 1574 1574 1575 1575 1575 1575 1576 1576 1575 1575 1575 1575 1575 1576 1576 1576 1577 1577 1578 1579 1581 1581 1579 1581 1580 1579 1578 1575 1575 1574 1573 1572 1572
1561 1562 1564 1566 1568 1570 1572 1573 1574 1575 1575 1575 1575 1576 1576 1576 1577 1577 1577 1577 1577 1577 1577 1577 1577 1578 1578 1579 1580 1582 1583 1584 1579 1582 1582 1581 1580 1578 1577 1576 1575 1574 1573
1559 1562 1563 1566 1569 1569 1571 1573 1575 1575 1576 1576 1576 1576 1577 1579 1577 1578 1578 1578 1578 1578 1578 1579 1579 1580 1580 1581 1583 1583 1584 1580 1582 1584 1583 1582 1581 1579 1577 1576 1576 1575 1573
1557 1560 1564 1569 1570 1570 1571 1573 1575 1576 1577 1576 1576 1576 1578 1578 1578 1578 1578 1579 1579 1579 1580 1581 1581 1582 1584 1586 1585 1586 1586 1583 1584 1586 1584 1584 1583 1581 1578 1576 1576 1575 1575
1556 1558 1560 1565 1568 1571 1573 1575 1576 1577 1576 1576 1577 1578 1577 1577 1578 1580 1579 1579 1580 1580 1580 1582 1582 1585 1586 1587 1587 1588 1588 1588 1588 1588 1585 1585 1585 1583 1581 1578 1576 1576 1576
1555 1558 1559 1562 1566 1569 1573 1574 1575 1576 1576 1576 1576 1577 1578 1578 1579 1581 1583 1582 1583 1585 1584 1586 1585 1585 1585 1585 1586 1587 1589 1589 1589 1588 1586 1586 1585 1584 1583 1582 1580 1577 1575
1553 1558 1561 1561 1563 1567 1569 1572 1573 1573 1576 1575 1575 1576 1578 1578 1577 1579 1579 1582 1583 1584 1585 1586 1586 1587 1586 1586 1587 1588 1588 1588 1589 1588 1586 1587 1586 1585 1583 1582 1580 1579 1577
1553 1554 1557 1558 1560 1562 1568 1568 1569 1571 1572 1574 1574 1575 1576 1576 1577 1577 1578 1580 1582 1584 1586 1587 1587 1587 1588 1587 1587 1588 1589 1590 1591 1591 1588 1587 1586 1584 1583 1582 1580 1578 1577
1550 1553 1553 1556 1559 1561 1563 1565 1567 1569 1572 1573 1573 1573 1574 1575 1576 1576 1577 1578 1580 1581 1583 1585 1587 1587 1588 1588 1588 1588 1588 1589 1590 1590 1591 1588 1584 1584 1582 1582 1579 1578 1577
1548 1548 1550 1553 1557 1559 1560 1563 1567 1567 1571 1571 1571 1572 1572 1573 1574 1575 1577 1578 1578 1580 1584 1585 1587 1587 1588 1588 1589 1590 1589 1588 1588 1589 1589 1589 1590 1586 1581 1579 1578 1577 1576
1546 1546 1548 1550 1553 1557 1558 1560 1564 1564 1568 1570 1570 1570 1571 1572 1573 1576 1576 1575 1577 1579 1582 1584 1586 1587 1588 1589 1589 1589 1589 1589 1589 1588 1587 1586 1586 1585 1584 1580 1578 1577 1576
1543 1543 1547 1548 1552 1556 1557 1559 1560 1562 1566 1567 1569 1569 1569 1570 1572 1573 1574 1575 1576 1577 1579 1582 1585 1587 1588 1588 1588 1587 1587 1587 1587 1587 1586 1586 1584 1584 1584 1584 1583 1578 1577
1539 1540 1544 1547 1549 1552 1555 1557 1559 1559 1562 1565 1566 1565 1567 1568 1569 1571 1573 1575 1576 1576 1579 1580 1582 1583 1585 1586 1586 1586 1585 1584 1586 1587 1587 1587 1585 1584 1582 1583 1584 1584 1579
1532 1533 1536 1541 1544 1547 1552 1555 1558 1559 1559 1561 1562 1564 1565 1566 1568 1569 1571 1572 1574 1575 1576 1577 1580 1583 1584 1584 1587 1587 1587 1587 1585 1586 1586 1586 1585 1586 1585 1583 1582 1581 1581
1526 1528 1533 1536 1540 1542 1546 1550 1553 1556 1558 1558 1558 1560 1562 1563 1565 1567 1568 1570 1572 1573 1574 1576 1577 1580 1582 1582 1583 1587 1586 1584 1585 1584 1584 1586 1584 1585 1584 1583 1581 1579 1578
1521 1524 1525 1529 1532 1534 1538 1545 1546 1547 1551 1554 1555 1557 1559 1561 1562 1564 1566 1568 1569 1571 1572 1574 1575 1578 1581 1582 1582 1583 1583 1582 1584 1584 1583 1581 1581 1581 1579 1579 1578 1576 1575
1515 1515 1518 1522 1526 1529 1535 1539 1541 1543 1547 1551 1554 1554 1556 1558 1560 1561 1562 1564 1567 1568 1569 1571 1573 1575 1577 1580 1580 1581 1580 1580 1580 1581 1581 1581 1580 1581 1579 1577 1576 1575 1573
1506 1512 1513 1518 1521 1526 1528 1531 1536 1537 1541 1546 1549 1550 1552 1554 1556 1558 1559 1561 1563 1565 1566 1568 1570 1572 1573 1574 1577 1578 1578 1578 1578 1578 1579 1580 1580 1578 1578 1576 1573 1572 1569